| time (UTC) | temp F | wind direction | speed MPH | gust MPH | rain 1hr in | rain 24hr in | rain mn in | humidity % | barometer mb |
| 20260510010045 | 63 | 145 | 0.0 | 0.0 | 0.00 | 0.00 | 0.00 | 53 | 1005.0 |
| 20260510004511 | 64 | 165 | 0.0 | 0.0 | 0.00 | 0.00 | 0.00 | 54 | 1004.6 |
| 20260510003043 | 64 | 250 | 0.0 | 0.0 | 0.00 | 0.00 | 0.00 | 53 | 1004.3 |
| 20260510001508 | 65 | 188 | 0.0 | 1.0 | 0.00 | 0.00 | 0.00 | 50 | 1004.0 |
| 20260510000039 | 66 | 159 | 0.0 | 1.0 | 0.00 | 0.00 | 0.00 | 49 | 1003.9 |
| 20260509234505 | 66 | 128 | 0.0 | 3.0 | 0.00 | 0.00 | 0.00 | 48 | 1003.9 |
| 20260509233035 | 67 | 238 | 0.0 | 2.0 | 0.00 | 0.00 | 0.00 | 48 | 1003.9 |
| 20260509231507 | 68 | 7 | 0.0 | 2.0 | 0.00 | 0.00 | 0.00 | 47 | 1003.9 |
| 20260509230033 | 68 | 176 | 0.0 | 9.0 | 0.00 | 0.00 | 0.00 | 46 | 1003.7 |
| 20260509224602 | 68 | 71 | 0.0 | 4.0 | 0.00 | 0.00 | 0.00 | 45 | 1003.7 |
| 20260509223030 | 68 | 141 | 0.0 | 9.0 | 0.00 | 0.00 | 0.00 | 43 | 1003.7 |
| 20260509221626 | 69 | 250 | 0.0 | 8.0 | 0.00 | 0.00 | 0.00 | 45 | 1003.7 |
| 20260509220037 | 69 | 203 | 0.0 | 3.0 | 0.00 | 0.00 | 0.00 | 44 | 1003.7 |
| 20260509214602 | 69 | 261 | 0.0 | 10.0 | 0.00 | 0.00 | 0.00 | 42 | 1003.6 |
| 20260509213027 | 69 | 214 | 0.0 | 4.0 | 0.00 | 0.00 | 0.00 | 40 | 1003.5 |
| 20260509211558 | 69 | 272 | 0.0 | 7.0 | 0.00 | 0.00 | 0.00 | 42 | 1003.5 |
| 20260509210025 | 69 | 122 | 1.0 | 7.0 | 0.00 | 0.00 | 0.00 | 40 | 1003.6 |
| 20260509204555 | 69 | 132 | 0.0 | 3.0 | 0.00 | 0.00 | 0.00 | 46 | 1003.7 |
| 20260509203033 | 71 | 101 | 0.0 | 6.0 | 0.00 | 0.00 | 0.00 | 45 | 1003.4 |
| 20260509201554 | 71 | 203 | 0.0 | 10.0 | 0.00 | 0.00 | 0.00 | 43 | 1003.4 |
| 20260509200023 | 71 | 129 | 0.0 | 15.0 | 0.00 | 0.00 | 0.00 | 43 | 1003.4 |
| 20260509194554 | 70 | 251 | 0.0 | 15.0 | 0.00 | 0.00 | 0.00 | 45 | 1003.6 |
| 20260509193017 | 71 | 217 | 0.0 | 11.0 | 0.00 | 0.00 | 0.00 | 50 | 1003.6 |
| 20260509191543 | 71 | 271 | 0.0 | 9.0 | 0.00 | 0.00 | 0.00 | 53 | 1003.4 |
| 20260509190009 | 69 | 141 | 0.0 | 8.0 | 0.00 | 0.00 | 0.00 | 53 | 1003.7 |
| 20260509184538 | 70 | 77 | 0.0 | 4.0 | 0.00 | 0.00 | 0.00 | 54 | 1003.5 |
| 20260509183005 | 71 | 320 | 0.0 | 1.0 | 0.00 | 0.00 | 0.00 | 54 | 1003.5 |
| 20260509181530 | 71 | 153 | 0.0 | 3.0 | 0.00 | 0.00 | 0.00 | 53 | 1003.7 |
| 20260509180058 | 71 | 27 | 0.0 | 9.0 | 0.00 | 0.00 | 0.00 | 57 | 1003.6 |
| 20260509174538 | 70 | 203 | 0.0 | 7.0 | 0.00 | 0.00 | 0.00 | 55 | 1003.8 |
| 20260509173057 | 70 | 271 | 0.0 | 4.0 | 0.00 | 0.00 | 0.00 | 57 | 1003.9 |
| 20260509171515 | 70 | 153 | 0.0 | 5.0 | 0.00 | 0.00 | 0.00 | 54 | 1003.9 |
| 20260509170041 | 69 | 150 | 0.0 | 2.0 | 0.00 | 0.00 | 0.00 | 56 | 1004.0 |
| 20260509164505 | 68 | 238 | 0.0 | 8.0 | 0.00 | 0.00 | 0.00 | 55 | 1004.1 |
| 20260509163043 | 68 | 250 | 0.0 | 5.0 | 0.00 | 0.00 | 0.00 | 59 | 1004.2 |
| 20260509161501 | 67 | 108 | 0.0 | 5.0 | 0.00 | 0.00 | 0.00 | 57 | 1004.2 |
| 20260509160028 | 67 | 71 | 0.0 | 8.0 | 0.00 | 0.00 | 0.00 | 58 | 1004.2 |
| 20260509154553 | 65 | 136 | 0.0 | 1.0 | 0.00 | 0.00 | 0.00 | 65 | 1004.4 |
| 20260509153032 | 65 | 339 | 0.0 | 0.0 | 0.00 | 0.00 | 0.00 | 66 | 1004.4 |
| 20260509151544 | 62 | 161 | 0.0 | 0.0 | 0.00 | 0.00 | 0.00 | 67 | 1004.3 |
| 20260509150018 | 61 | 262 | 0.0 | 0.0 | 0.00 | 0.00 | 0.00 | 73 | 1004.3 |
| 20260509144532 | 59 | 118 | 0.0 | 0.0 | 0.00 | 0.00 | 0.00 | 75 | 1004.5 |
| 20260509143101 | 58 | 281 | 0.0 | 2.0 | 0.00 | 0.00 | 0.00 | 80 | 1004.7 |
| 20260509141520 | 56 | 245 | 0.0 | 0.0 | 0.00 | 0.00 | 0.00 | 82 | 1004.9 |
| 20260509140057 | 56 | 233 | 0.0 | 0.0 | 0.00 | 0.00 | 0.00 | 83 | 1005.2 |
| 20260509134509 | 55 | 271 | 0.0 | 0.0 | 0.00 | 0.00 | 0.00 | 86 | 1005.1 |
| 20260509133037 | 54 | 124 | 0.0 | 0.0 | 0.00 | 0.00 | 0.00 | 87 | 1005.1 |
| 20260509131503 | 54 | 243 | 0.0 | 0.0 | 0.00 | 0.00 | 0.00 | 88 | 1005.5 |
| 20260509130032 | 53 | 238 | 0.0 | 0.0 | 0.00 | 0.00 | 0.00 | 89 | 1005.5 |
| 20260509124557 | 53 | 176 | 0.0 | 0.0 | 0.00 | 0.00 | 0.00 | 90 | 1005.5 |
| 20260509123026 | 52 | 45 | 0.0 | 0.0 | 0.00 | 0.00 | 0.00 | 92 | 1005.7 |
| 20260509121559 | 52 | 255 | 0.0 | 0.0 | 0.00 | 0.00 | 0.00 | 93 | 1005.7 |
| 20260509120025 | 51 | 219 | 0.0 | 0.0 | 0.00 | 0.00 | 0.00 | 94 | 1005.8 |
| 20260509114548 | 51 | 174 | 0.0 | 0.0 | 0.00 | 0.00 | 0.00 | 95 | 1005.7 |
| 20260509113012 | 51 | 328 | 0.0 | 0.0 | 0.00 | 0.00 | 0.00 | 95 | 1005.9 |
| 20260509111542 | 51 | 269 | 0.0 | 0.0 | 0.00 | 0.00 | 0.00 | 96 | 1005.9 |
| 20260509110008 | 50 | 314 | 0.0 | 0.0 | 0.00 | 0.00 | 0.00 | 96 | 1005.7 |
| 20260509104541 | 50 | 253 | 0.0 | 0.0 | 0.00 | 0.00 | 0.00 | 96 | 1005.5 |
| 20260509103008 | 50 | 307 | 0.0 | 0.0 | 0.00 | 0.00 | 0.00 | 96 | 1005.6 |
| 20260509101540 | 50 | 19 | 0.0 | 0.0 | 0.00 | 0.00 | 0.00 | 96 | 1005.5 |
| 20260509100007 | 50 | 101 | 0.0 | 0.0 | 0.00 | 0.00 | 0.00 | 96 | 1005.7 |
| 20260509094536 | 50 | 257 | 0.0 | 0.0 | 0.00 | 0.00 | 0.00 | 96 | 1005.9 |
| 20260509093006 | 50 | 266 | 0.0 | 0.0 | 0.00 | 0.00 | 0.00 | 96 | 1006.0 |
| 20260509091537 | 50 | 238 | 0.0 | 0.0 | 0.00 | 0.00 | 0.00 | 96 | 1006.0 |
| 20260509090105 | 50 | 229 | 0.0 | 0.0 | 0.00 | 0.00 | 0.00 | 96 | 1006.2 |
| 20260509084531 | 50 | 241 | 0.0 | 0.0 | 0.00 | 0.00 | 0.00 | 96 | 1006.1 |
| 20260509083102 | 50 | 257 | 0.0 | 0.0 | 0.00 | 0.00 | 0.00 | 96 | 1006.1 |
| 20260509081524 | 50 | 225 | 0.0 | 0.0 | 0.00 | 0.00 | 0.00 | 96 | 1006.0 |
| 20260509080054 | 49 | 288 | 0.0 | 0.0 | 0.00 | 0.00 | 0.00 | 96 | 1006.0 |
| 20260509074520 | 49 | 101 | 0.0 | 0.0 | 0.00 | 0.00 | 0.00 | 96 | 1006.1 |
| 20260509073048 | 49 | 271 | 0.0 | 0.0 | 0.00 | 0.00 | 0.00 | 96 | 1006.1 |
| 20260509071516 | 48 | 255 | 0.0 | 0.0 | 0.00 | 0.00 | 0.00 | 96 | 1006.3 |
| 20260509070046 | 48 | 255 | 0.0 | 0.0 | 0.00 | 0.00 | 0.00 | 96 | 1006.5 |
| 20260509064511 | 48 | 255 | 0.0 | 0.0 | 0.00 | 0.00 | 0.00 | 96 | 1006.7 |
| 20260509063042 | 48 | 255 | 0.0 | 0.0 | 0.00 | 0.00 | 0.00 | 96 | 1006.8 |
| 20260509061508 | 48 | 255 | 0.0 | 0.0 | 0.00 | 0.00 | 0.00 | 95 | 1006.9 |
| 20260509060038 | 49 | 255 | 0.0 | 0.0 | 0.00 | 0.00 | 0.00 | 95 | 1007.0 |
| 20260509054609 | 49 | 255 | 0.0 | 0.0 | 0.00 | 0.00 | 0.00 | 95 | 1007.1 |
| 20260509053022 | 49 | 255 | 0.0 | 0.0 | 0.00 | 0.00 | 0.00 | 95 | 1007.2 |
| 20260509051555 | 49 | 255 | 0.0 | 0.0 | 0.00 | 0.00 | 0.00 | 95 | 1007.2 |
| 20260509050039 | 49 | 212 | 0.0 | 0.0 | 0.00 | 0.00 | 0.00 | 95 | 1007.4 |
| 20260509044548 | 49 | 212 | 0.0 | 0.0 | 0.00 | 0.00 | 0.00 | 95 | 1007.4 |
| 20260509043015 | 49 | 212 | 0.0 | 0.0 | 0.00 | 0.00 | 0.00 | 95 | 1007.5 |
| 20260509041545 | 50 | 212 | 0.0 | 0.0 | 0.00 | 0.00 | 0.00 | 94 | 1007.5 |
| 20260509040008 | 50 | 212 | 0.0 | 0.0 | 0.00 | 0.00 | 0.00 | 94 | 1007.6 |
| 20260509034536 | 50 | 212 | 0.0 | 0.0 | 0.00 | 0.00 | 0.00 | 94 | 1007.7 |
| 20260509033004 | 50 | 212 | 0.0 | 0.0 | 0.00 | 0.00 | 0.00 | 94 | 1007.8 |
| 20260509031542 | 50 | 212 | 0.0 | 0.0 | 0.00 | 0.00 | 0.00 | 93 | 1008.1 |
| 20260509030003 | 50 | 212 | 0.0 | 0.0 | 0.00 | 0.00 | 0.00 | 93 | 1008.1 |
| 20260509024537 | 51 | 212 | 0.0 | 0.0 | 0.00 | 0.00 | 0.00 | 92 | 1008.2 |
| 20260509023106 | 51 | 212 | 0.0 | 0.0 | 0.00 | 0.00 | 0.00 | 92 | 1008.2 |
| 20260509021529 | 51 | 212 | 0.0 | 0.0 | 0.00 | 0.00 | 0.00 | 91 | 1008.2 |
| 20260509020002 | 51 | 212 | 0.0 | 0.0 | 0.00 | 0.00 | 0.00 | 90 | 1008.0 |
| 20260509014528 | 52 | 212 | 0.0 | 0.0 | 0.00 | 0.00 | 0.00 | 88 | 1008.0 |
| 20260509013111 | 53 | 212 | 0.0 | 0.0 | 0.00 | 0.00 | 0.00 | 86 | 1007.9 |
| 20260509011527 | 54 | 176 | 0.0 | 0.0 | 0.00 | 0.00 | 0.00 | 85 | 1007.9 |